Location: Ellingshausen
(50.5460°N, 10.4723°E)
Time: 20:18:51
(UTC+00:00)

CZ-4C R/B - Pass Details

Date: 18 January 2026
Orbit: 482 x 1496 km, 63.4° (Epoch: 16 February)

Event Time Altitude Azimuth Distance (km) Brightness Sun altitude
Exits shadow 05:59:58 - 319° (NW) 2,747 4.3 -10.9°
Reaches altitude 10° 06:00:08 10° 319° (NW) 2,691 4.3 -10.9°
Maximum altitude 06:06:30 55° 37° (NE) 1,353 3.4 -9.9°
Drops below altitude 10° 06:14:35 10° 115° (ESE) 3,389 7.0 -8.7°
Sets 06:17:49 0° 119° (ESE) 4,466 8.3 -8.3°
